Other Public Products
Issued by NWS Grand Forks, ND

Home | Current Version | Previous Version | Graphics & Text | Print | Product List | Glossary On
Versions: 1 2 3 4 5 6 7 8 9 10 11 12 13 14 15 16 17 18 19 20 21 22 23 24 25 26 27 28 29 30 31 32 33 34 35 36 37 38 39 40 41 42 43 44 45 46 47 48 49 50
000
FPUS83 KFGF 010131
OPUFGF
PRAIRIE TO PINES WEATHER ROUNDUP
NATIONAL WEATHER SERVICE EASTERN NORTH DAKOTA/GRAND FORKS ND
800 PM CDT THU JUL 31 2014

 **SATELLITE DATA USED TO AUGMENT SKY COVER AT AUTOMATED STATIONS**
 *****  WEATHER ACROSS EASTERN NORTH DAKOTA  *****

CITY           SKY/WX    TMP DP  RH WIND       PRES   REMARKS
GRAND FORKS    FAIR      78  66  66 N5        29.98S
GRAND FORKS AF FAIR      76  68  76 NE2       30.00S
GRAND CITY NWS   N/A     77 N/A N/A N1          N/A
BUXTON           N/A     80  68  67 CALM        N/A
DEVILS LAKE    FAIR      75  61  60 N5        30.01S
FARGO          FAIR      79  61  53 E6        29.99S
WAHPETON ARPT  FAIR      75  54  46 CALM      30.01R
$$

 *****  WEATHER ACROSS CENTRAL AND WESTERN NORTH DAKOTA  *****

CITY           SKY/WX    TMP DP  RH WIND       PRES   REMARKS
JAMESTOWN      FAIR      78  60  53 N3        30.02F
BISMARCK       SUNNY     83  49  30 S7        30.03S
MINOT          FAIR      76  61  59 E5        30.02F
MINOT AFB      FAIR      78  61  55 SE6       30.02F
GARRISON         N/A     76  58  53 E7        30.03F
WILLISTON      SUNNY     84  57  39 E13       30.00R
DICKINSON      SUNNY     80  59  48 SE8       30.02F
HETTINGER      SUNNY     83  51  33 E7        30.05F
$$

 *****  OTHER OBSERVATIONS NORTHEAST NORTH DAKOTA  *****

CITY           SKY/WX    TMP DP  RH WIND       PRES   REMARKS
WALHALLA       FAIR      73  64  73 NE6         N/A
LANGDON        FAIR      73  63  68 N5        30.03F
CAVALIER       FAIR      77  61  57 N6        30.00S
GRAFTON        FAIR      75  64  69 NE6       29.99S
CANDO          FAIR      73  61  64 N5        30.03S
FORT TOTTEN      N/A     75  63  66 CALM      29.95S
ROLLA          FAIR      73  64  73 N5        30.06S
RUGBY          FAIR      75  61  60 CALM      30.02F
 ***** THE ABOVE OBSERVATIONS ARE NON NWS ARE NOT QUALITY
        CONTROLLED AND MAY MIS-REPORT RAIN FOR SNOW...
$$

 *****  OTHER OBSERVATIONS SOUTHEAST NORTH DAKOTA *****

CITY           SKY/WX    TMP DP  RH WIND       PRES   REMARKS
COOPERSTOWN    NOT AVBL
VALLEY CITY    FAIR      77  59  53 N3        30.02S
OAKES          NOT AVBL
GWINNER        PTCLDY    79  63  57 CALM      30.03S
BUFFALO          N/A     77  54  44 CALM        N/A
WYNDMERE       NOT AVBL
 ***** THE ABOVE OBSERVATIONS ARE NON NWS ARE NOT QUALITY
       CONTROLLED AND MAY MIS-REPORT RAIN FOR SNOW...
$$

  *****  WEATHER ACROSS NORTHERN MINNESOTA  *****

CITY           SKY/WX    TMP DP  RH WIND       PRES   REMARKS
FLAG ISLAND    FAIR      73  64  73 CALM      29.97S
WARROAD        FAIR      73  61  64 W6        29.99S
ROSEAU           N/A     73  61  64 W6        29.99S
HALLOCK        FAIR      75  63  64 N3        29.99S
THF RVR FALLS  FAIR      75  63  64 NW5       30.00S
HALSTAD          N/A     78  63  59 CALM        N/A
FOSSTON        FAIR      72  61  68 CALM      30.02S
BAUDETTE       FAIR      71  61  70 CALM      30.00S
WASKISH        FAIR      70  59  68 CALM      30.00R
CROOKSTON      FAIR      77  66  69 CALM      30.00S
$$
  *****  WEATHER ACROSS CENTRAL AND WEST MINNESOTA  *****

CITY           SKY/WX    TMP DP  RH WIND       PRES   REMARKS
BEMIDJI        FAIR      73  59  61 CALM      30.01S
PARK RAPIDS    FAIR      74  60  61 NW6       30.01S
WADENA         FAIR      70  61  73 NW3       30.01S
DETROIT LAKES  FAIR      73  61  64 N3        30.03S
MOORHEAD       FAIR      77  66  69 E3        30.00S
FERGUS FALLS   FAIR      73  57  56 CALM      30.00S
ELBOW LAKE     FAIR      73  62  67 NW3       30.01S
MORRIS MN      FAIR      73  63  68 CALM      30.01S
STAPLES        FAIR      72  57  60 NW3       30.01R
WHEATON        FAIR      73  61  64 CALM      30.02F
$$
  *****  WEATHER ELSEWHERE ACROSS MINNESOTA  *****

CITY           SKY/WX    TMP DP  RH WIND       PRES   REMARKS
DULUTH         FAIR      73  57  57 NW3       29.98R
INTRNTL FALLS  FAIR      69  58  67 NW3       29.98S
ELY            FAIR      66  52  59 CALM      29.99S
CLOQUET        FAIR      70  61  73 CALM      29.99R
BRAINERD       FAIR      75  60  59 W5        29.99S
HIBBING        FAIR      73  57  57 CALM      29.99R
ALEXANDRIA     FAIR      76  59  55 W5        30.03F
SAINT CLOUD    FAIR      79  57  46 NW3       29.99S
MINNEAPOLIS    FAIR      78  56  46 NW6       29.99S
$$

  *****  WEATHER ACROSS SOUTH DAKOTA  *****

CITY           SKY/WX    TMP DP  RH WIND       PRES   REMARKS
SIOUX FALLS    FAIR      71  61  70 VRB5      30.04S
BROOKINGS      NOT AVBL
WATERTOWN      FAIR      74  55  51 N6        30.04S
HURON          CLEAR     78  55  44 NE6       30.02S
SISSETON         N/A     76  67  73 CALM      30.01S
ABERDEEN       CLEAR     76  60  57 E3        30.03S
MITCHELL       PTCLDY    78  63  59 E7        30.02F
PIERRE         SUNNY     82  58  43 E13       30.00F
MOBRIDGE       SUNNY     81  58  45 E5        30.00F
RAPID CITY     MOSUNNY   81  54  39 W7        30.10S
$$

  *****  SOME WEATHER IN NEARBY STATES *****

CITY           SKY/WX    TMP DP  RH WIND       PRES   REMARKS
GLASGOW MT     CLOUDY    88  42  20 S8        29.96R
GREAT FALLS MT PTSUNNY   87  36  16 S7        30.08F
CHEYENNE WY    MOSUNNY   71  46  40 SW10      30.27S
SCOTTSBLUFF NE SUNNY     83  42  23 SE8       30.14F
OMAHA NE       MOCLDY    78  59  51 E10       30.00F
DES MOINES IA  CLOUDY    71  65  81 W5        30.04S
DAVENPORT IA   FAIR      73  64  73 W3        30.04S
CHICAGO IL     FAIR      78  56  46 W9        30.02R
EAU CLAIRE WI  MOCLDY    74  60  61 CALM      29.99R
LA CROSSE WI   FAIR      76  60  57 SW3       29.99S
$$

  *****  SOME NATIONAL WEATHER *****

CITY           SKY/WX    TMP DP  RH WIND       PRES   REMARKS
LA GUARDIA NY  MOCLDY    75  65  70 S10       30.12R
RALEIGH NC     LGT RAIN  73  69  87 CALM      30.14R
ATLANTA GA     CLOUDY    71  67  87 E10       30.07S
NEW ORLEANS LA MOCLDY    83  62  49 NE6       29.98F
OKLAHOMA CITY  FAIR      75  65  70 NE9       30.05S
ALBUQUERQUE NM LGT RAIN  70  56  61 NE13      30.22R
SALT LAKE CITY PTSUNNY   83  50  31 W12       30.10S
LOS ANGELES CA MOSUNNY   72  61  68 W15       29.86F
BOISE ID       PTSUNNY   90  45  20 NE18G30   30.02R
SEATTLE WA     MOSUNNY   85  51  31 N9        30.04F
$$

*** WEATHER ACROSS MANITOBA...SASKATCHEWAN AND ONTARIO ***
                ***ONTARIO***

CITY           SKY/WX    TMP DP  RH WIND       PRES   REMARKS
GERALDTON      LGT RAIN  54  52  94 NW8       29.95S FOG
THUNDER BAY    MOCLDY    70  55  60 NE13G18   29.93R
SIOUX LOOKOUT  MOCLDY    70  52  52 W5        29.98S
TORONTO        PTCLDY    72  57  60 SW10G17   30.03R
BIG TROUT LK   CLOUDY    59  50  72 E6        29.98R
PICKLE LAKE    MOCLDY    64  46  52 E5        29.98S
DRYDEN         CLEAR     70  48  46 NW5       29.99S
KENORA         PTCLDY    72  55  56 N2        30.00S
$$
                *** MANITOBA***

CITY           SKY/WX    TMP DP  RH WIND       PRES   REMARKS
BRANDON        CLOUDY    75  63  64 E5        30.04S
DAUPHIN        SUNNY     75  64  69 W3        30.02S
ISLAND LAKE    PTCLDY    72  52  49 N3        30.03R
PILOT MOUND      N/A     73  63  68 E3          N/A
THE PAS        TSTM     N/A N/A N/A SE3         N/A  FOG
THOMPSON       PTSUNNY   77  57  50 SE6       30.00F
WINNIPEG       PTCLDY    73  57  56 NE7       30.00F
LYNN LAKE      SUNNY     72  61  68 SE5       29.99F
CHURCHILL      SUNNY     68  55  64 SE12      30.02F
GILLAM         CLOUDY    72  52  49 CALM      30.03F
$$
                ***SASKATCHEWAN***

CITY           SKY/WX    TMP DP  RH WIND       PRES   REMARKS
ESTEVAN        MOSUNNY   77  63  61 E7        30.04S
KINDERSLEY     PTSUNNY   77  66  69 E6        30.05R
LLOYDMINSTER   MOSUNNY   81  61  50 E7        30.06
PRINCE ALBERT  CLOUDY    75  64  69 E5        30.04F
REGINA         MOSUNNY   79  61  53 E14       30.03R
YORKTON        NOT AVBL



USA.gov is the U.S. government's official web portal to all federal, state and local government web resources and services.